uid,date,node_uid,node_name,location_uid,location,reading1,node_unit,username,node_type
21157,"2024-04-30 16:25:00",32,"10 Circus Street - Electric",21,"Circus Street 10",69300.00,kWh,***,Electric
21055,"2024-04-02 12:23:00",32,"10 Circus Street - Electric",21,"Circus Street 10",69222.00,kWh,***,Electric
20914,"2024-02-28 12:53:00",32,"10 Circus Street - Electric",21,"Circus Street 10",69134.00,kWh,***,Electric
20855,"2024-02-01 14:57:00",32,"10 Circus Street - Electric",21,"Circus Street 10",69032.00,kWh,***,Electric
20766,"2024-01-03 17:27:00",32,"10 Circus Street - Electric",21,"Circus Street 10",68947.00,kWh,***,Electric
20653,"2023-11-30 15:14:00",32,"10 Circus Street - Electric",21,"Circus Street 10",68902.00,kWh,***,Electric
20494,"2023-10-30 09:09:00",32,"10 Circus Street - Electric",21,"Circus Street 10",68763.00,kWh,***,Electric
20446,"2023-10-03 10:00:00",32,"10 Circus Street - Electric",21,"Circus Street 10",68661.00,kWh,***,Electric
20283,"2023-09-01 08:47:00",32,"10 Circus Street - Electric",21,"Circus Street 10",68552.00,kWh,***,Electric
20201,"2023-07-28 10:25:00",32,"10 Circus Street - Electric",21,"Circus Street 10",68426.00,kWh,***,Electric
20160,"2023-07-05 15:00:00",32,"10 Circus Street - Electric",21,"Circus Street 10",68367.00,kWh,***,Electric
20058,"2023-06-01 14:20:00",32,"10 Circus Street - Electric",21,"Circus Street 10",68284.00,kWh,***,Electric
19900,"2023-04-28 12:03:00",32,"10 Circus Street - Electric",21,"Circus Street 10",68180.00,kWh,***,Electric
19792,"2023-03-31 12:10:00",32,"10 Circus Street - Electric",21,"Circus Street 10",68104.00,kWh,***,Electric
19723,"2023-03-01 10:49:00",32,"10 Circus Street - Electric",21,"Circus Street 10",68012.00,kWh,***,Electric
19633,"2023-02-01 10:54:00",32,"10 Circus Street - Electric",21,"Circus Street 10",67905.00,kWh,***,Electric
19523,"2023-01-03 14:42:00",32,"10 Circus Street - Electric",21,"Circus Street 10",67782.00,kWh,***,Electric
19395,"2022-11-30 10:34:00",32,"10 Circus Street - Electric",21,"Circus Street 10",67624.00,kWh,***,Electric
19327,"2022-10-31 10:51:00",32,"10 Circus Street - Electric",21,"Circus Street 10",67514.00,kWh,***,Electric
19186,"2022-09-29 11:33:00",32,"10 Circus Street - Electric",21,"Circus Street 10",67387.00,kWh,***,Electric
19162,"2022-08-31 11:08:00",32,"10 Circus Street - Electric",21,"Circus Street 10",67286.00,kWh,***,Electric
19072,"2022-08-01 09:32:00",32,"10 Circus Street - Electric",21,"Circus Street 10",67189.00,kWh,***,Electric
18983,"2022-07-01 11:50:00",32,"10 Circus Street - Electric",21,"Circus Street 10",67103.00,kWh,***,Electric
18910,"2022-05-26 14:39:00",32,"10 Circus Street - Electric",21,"Circus Street 10",67012.00,kWh,***,Electric
18808,"2022-04-29 11:46:00",32,"10 Circus Street - Electric",21,"Circus Street 10",66952.00,kWh,***,Electric
18722,"2022-04-01 10:01:00",32,"10 Circus Street - Electric",21,"Circus Street 10",66907.00,kWh,***,Electric
18636,"2022-03-01 16:27:00",32,"10 Circus Street - Electric",21,"Circus Street 10",66850.00,kWh,***,Electric
18546,"2022-02-01 11:15:00",32,"10 Circus Street - Electric",21,"Circus Street 10",66774.00,kWh,***,Electric
18454,"2022-01-05 08:24:58",32,"10 Circus Street - Electric",21,"Circus Street 10",66658.00,kWh,***,Electric
18354,"2021-12-01 16:05:57",32,"10 Circus Street - Electric",21,"Circus Street 10",66518.00,kWh,***,Electric
18353,"2021-12-01 16:05:52",32,"10 Circus Street - Electric",21,"Circus Street 10",66518.00,kWh,***,Electric
18183,"2021-11-01 14:21:46",32,"10 Circus Street - Electric",21,"Circus Street 10",66414.00,kWh,***,Electric
18105,"2021-09-30 10:31:26",32,"10 Circus Street - Electric",21,"Circus Street 10",66314.00,kWh,***,Electric
18078,"2021-09-01 13:43:19",32,"10 Circus Street - Electric",21,"Circus Street 10",66212.00,kWh,***,Electric
17957,"2021-08-03 10:24:20",32,"10 Circus Street - Electric",21,"Circus Street 10",66134.00,kWh,***,Electric
17916,"2021-07-02 17:35:21",32,"10 Circus Street - Electric",21,"Circus Street 10",66033.00,kWh,***,Electric
17826,"2021-06-01 16:20:07",32,"10 Circus Street - Electric",21,"Circus Street 10",65945.00,kWh,***,Electric
17774,"2021-05-05 17:23:57",32,"10 Circus Street - Electric",21,"Circus Street 10",65853.00,kWh,***,Electric
17582,"2021-04-01 10:40:11",32,"10 Circus Street - Electric",21,"Circus Street 10",65738.00,kWh,***,Electric
17464,"2021-03-01 15:04:38",32,"10 Circus Street - Electric",21,"Circus Street 10",65624.00,kWh,***,Electric
17378,"2021-02-01 13:46:48",32,"10 Circus Street - Electric",21,"Circus Street 10",65506.00,kWh,***,Electric
17362,"2021-01-05 15:22:44",32,"10 Circus Street - Electric",21,"Circus Street 10",65388.00,kWh,***,Electric
17235,"2020-12-01 10:18:18",32,"10 Circus Street - Electric",21,"Circus Street 10",65245.00,kWh,***,Electric
17159,"2020-11-02 11:37:00",32,"10 Circus Street - Electric",21,"Circus Street 10",65138.00,kWh,***,Electric
17126,"2020-10-07 09:32:00",32,"10 Circus Street - Electric",21,"Circus Street 10",65034.00,kWh,***,Electric
17004,"2020-09-01 10:12:00",32,"10 Circus Street - Electric",21,"Circus Street 10",64956.00,kWh,***,Electric
16919,"2020-07-30 13:35:00",32,"10 Circus Street - Electric",21,"Circus Street 10",64837.00,kWh,***,Electric
16834,"2020-07-01 13:15:00",32,"10 Circus Street - Electric",21,"Circus Street 10",64728.00,kWh,***,Electric
16769,"2020-06-01 12:36:00",32,"10 Circus Street - Electric",21,"Circus Street 10",64622.00,kWh,***,Electric
16735,"2020-05-01 13:39:00",32,"10 Circus Street - Electric",21,"Circus Street 10",64506.00,kWh,***,Electric
16619,"2020-04-20 11:54:00",32,"10 Circus Street - Electric",21,"Circus Street 10",64461.00,kWh,***,Electric
16595,"2020-03-03 10:48:00",32,"10 Circus Street - Electric",21,"Circus Street 10",64277.00,kWh,***,Electric
16376,"2020-02-03 11:23:00",32,"10 Circus Street - Electric",21,"Circus Street 10",64181.00,kWh,***,Electric
7216,"2019-12-01 00:00:00",32,"10 Circus Street - Electric",21,"Circus Street 10",64090.00,kWh,***,Electric
7215,"2019-11-01 00:00:00",32,"10 Circus Street - Electric",21,"Circus Street 10",64024.00,kWh,***,Electric
7214,"2019-10-01 00:00:00",32,"10 Circus Street - Electric",21,"Circus Street 10",63916.00,kWh,***,Electric
7213,"2019-09-01 00:00:00",32,"10 Circus Street - Electric",21,"Circus Street 10",63837.00,kWh,***,Electric
7212,"2019-08-01 00:00:00",32,"10 Circus Street - Electric",21,"Circus Street 10",63724.00,kWh,***,Electric
7211,"2019-07-01 00:00:00",32,"10 Circus Street - Electric",21,"Circus Street 10",63696.00,kWh,***,Electric
7210,"2019-06-01 00:00:00",32,"10 Circus Street - Electric",21,"Circus Street 10",63635.00,kWh,***,Electric
7209,"2019-05-01 00:00:00",32,"10 Circus Street - Electric",21,"Circus Street 10",63580.00,kWh,***,Electric
7208,"2019-04-01 00:00:00",32,"10 Circus Street - Electric",21,"Circus Street 10",63474.00,kWh,***,Electric
7833,"2019-03-01 00:00:00",32,"10 Circus Street - Electric",21,"Circus Street 10",63401.00,kWh,***,Electric
7832,"2019-02-01 00:00:00",32,"10 Circus Street - Electric",21,"Circus Street 10",63330.00,kWh,***,Electric
7831,"2019-01-01 00:00:00",32,"10 Circus Street - Electric",21,"Circus Street 10",63271.00,kWh,***,Electric
7830,"2018-12-01 00:00:00",32,"10 Circus Street - Electric",21,"Circus Street 10",63201.00,kWh,***,Electric
7829,"2018-11-01 00:00:00",32,"10 Circus Street - Electric",21,"Circus Street 10",63144.00,kWh,***,Electric
7828,"2018-10-01 00:00:00",32,"10 Circus Street - Electric",21,"Circus Street 10",63064.00,kWh,***,Electric
7827,"2018-09-01 00:00:00",32,"10 Circus Street - Electric",21,"Circus Street 10",62996.00,kWh,***,Electric
7826,"2018-08-01 00:00:00",32,"10 Circus Street - Electric",21,"Circus Street 10",62938.00,kWh,***,Electric
7825,"2018-07-01 00:00:00",32,"10 Circus Street - Electric",21,"Circus Street 10",62854.00,kWh,***,Electric
7824,"2018-06-01 00:00:00",32,"10 Circus Street - Electric",21,"Circus Street 10",62801.00,kWh,***,Electric
7823,"2018-05-01 00:00:00",32,"10 Circus Street - Electric",21,"Circus Street 10",62745.00,kWh,***,Electric
7822,"2018-04-01 00:00:00",32,"10 Circus Street - Electric",21,"Circus Street 10",62665.00,kWh,***,Electric
7821,"2018-03-01 00:00:00",32,"10 Circus Street - Electric",21,"Circus Street 10",62574.00,kWh,***,Electric
8622,"2018-03-01 00:00:00",32,"10 Circus Street - Electric",21,"Circus Street 10",62574.00,kWh,***,Electric
8621,"2018-02-01 00:00:00",32,"10 Circus Street - Electric",21,"Circus Street 10",62519.00,kWh,***,Electric
8620,"2018-01-01 00:00:00",32,"10 Circus Street - Electric",21,"Circus Street 10",62432.00,kWh,***,Electric
8619,"2017-12-01 00:00:00",32,"10 Circus Street - Electric",21,"Circus Street 10",62321.00,kWh,***,Electric
8618,"2017-11-01 00:00:00",32,"10 Circus Street - Electric",21,"Circus Street 10",62248.00,kWh,***,Electric
8617,"2017-10-01 00:00:00",32,"10 Circus Street - Electric",21,"Circus Street 10",62170.00,kWh,***,Electric
8616,"2017-09-01 00:00:00",32,"10 Circus Street - Electric",21,"Circus Street 10",62105.00,kWh,***,Electric
8615,"2017-08-01 00:00:00",32,"10 Circus Street - Electric",21,"Circus Street 10",62042.00,kWh,***,Electric
8614,"2017-07-01 00:00:00",32,"10 Circus Street - Electric",21,"Circus Street 10",61974.00,kWh,***,Electric
8613,"2017-06-01 00:00:00",32,"10 Circus Street - Electric",21,"Circus Street 10",61922.00,kWh,***,Electric
8612,"2017-05-01 00:00:00",32,"10 Circus Street - Electric",21,"Circus Street 10",61858.00,kWh,***,Electric
8611,"2017-04-01 00:00:00",32,"10 Circus Street - Electric",21,"Circus Street 10",61796.00,kWh,***,Electric
8610,"2017-03-01 00:00:00",32,"10 Circus Street - Electric",21,"Circus Street 10",61732.00,kWh,***,Electric
9426,"2017-03-01 00:00:00",32,"10 Circus Street - Electric",21,"Circus Street 10",61732.00,kWh,***,Electric
9425,"2017-02-01 00:00:00",32,"10 Circus Street - Electric",21,"Circus Street 10",61657.00,kWh,***,Electric
9424,"2017-01-01 00:00:00",32,"10 Circus Street - Electric",21,"Circus Street 10",61585.00,kWh,***,Electric
9423,"2016-12-01 00:00:00",32,"10 Circus Street - Electric",21,"Circus Street 10",61501.00,kWh,***,Electric
9422,"2016-11-01 00:00:00",32,"10 Circus Street - Electric",21,"Circus Street 10",61444.00,kWh,***,Electric
9421,"2016-10-01 00:00:00",32,"10 Circus Street - Electric",21,"Circus Street 10",61368.00,kWh,***,Electric
9420,"2016-09-01 00:00:00",32,"10 Circus Street - Electric",21,"Circus Street 10",61296.00,kWh,***,Electric
9419,"2016-08-01 00:00:00",32,"10 Circus Street - Electric",21,"Circus Street 10",61242.00,kWh,***,Electric
9418,"2016-07-01 00:00:00",32,"10 Circus Street - Electric",21,"Circus Street 10",61176.00,kWh,***,Electric
9417,"2016-06-01 00:00:00",32,"10 Circus Street - Electric",21,"Circus Street 10",61116.00,kWh,***,Electric
9416,"2016-05-01 00:00:00",32,"10 Circus Street - Electric",21,"Circus Street 10",61106.00,kWh,***,Electric
9415,"2016-04-01 00:00:00",32,"10 Circus Street - Electric",21,"Circus Street 10",61088.00,kWh,***,Electric
9414,"2016-03-01 00:00:00",32,"10 Circus Street - Electric",21,"Circus Street 10",61068.00,kWh,***,Electric
10231,"2016-03-01 00:00:00",32,"10 Circus Street - Electric",21,"Circus Street 10",61068.00,kWh,***,Electric
10230,"2016-02-01 00:00:00",32,"10 Circus Street - Electric",21,"Circus Street 10",61055.00,kWh,***,Electric
10229,"2016-01-01 00:00:00",32,"10 Circus Street - Electric",21,"Circus Street 10",61021.00,kWh,***,Electric
10228,"2015-12-01 00:00:00",32,"10 Circus Street - Electric",21,"Circus Street 10",60993.00,kWh,***,Electric
10227,"2015-11-01 00:00:00",32,"10 Circus Street - Electric",21,"Circus Street 10",60986.00,kWh,***,Electric
10226,"2015-10-01 00:00:00",32,"10 Circus Street - Electric",21,"Circus Street 10",60927.00,kWh,***,Electric
10225,"2015-09-01 00:00:00",32,"10 Circus Street - Electric",21,"Circus Street 10",60862.00,kWh,***,Electric
10224,"2015-08-01 00:00:00",32,"10 Circus Street - Electric",21,"Circus Street 10",60703.00,kWh,***,Electric
10223,"2015-07-01 00:00:00",32,"10 Circus Street - Electric",21,"Circus Street 10",60592.00,kWh,***,Electric
10222,"2015-06-01 00:00:00",32,"10 Circus Street - Electric",21,"Circus Street 10",60516.00,kWh,***,Electric
10221,"2015-05-01 00:00:00",32,"10 Circus Street - Electric",21,"Circus Street 10",60412.00,kWh,***,Electric
10220,"2015-04-01 00:00:00",32,"10 Circus Street - Electric",21,"Circus Street 10",60289.00,kWh,***,Electric
10219,"2015-03-01 00:00:00",32,"10 Circus Street - Electric",21,"Circus Street 10",60168.00,kWh,***,Electric
11084,"2015-03-01 00:00:00",32,"10 Circus Street - Electric",21,"Circus Street 10",60168.00,kWh,***,Electric
11083,"2015-02-01 00:00:00",32,"10 Circus Street - Electric",21,"Circus Street 10",60003.00,kWh,***,Electric
11082,"2015-01-01 00:00:00",32,"10 Circus Street - Electric",21,"Circus Street 10",59854.00,kWh,***,Electric
11081,"2014-12-01 00:00:00",32,"10 Circus Street - Electric",21,"Circus Street 10",59661.00,kWh,***,Electric
11080,"2014-11-01 00:00:00",32,"10 Circus Street - Electric",21,"Circus Street 10",59551.00,kWh,***,Electric
11079,"2014-10-01 00:00:00",32,"10 Circus Street - Electric",21,"Circus Street 10",59403.00,kWh,***,Electric
11078,"2014-09-01 00:00:00",32,"10 Circus Street - Electric",21,"Circus Street 10",59293.00,kWh,***,Electric
11077,"2014-08-01 00:00:00",32,"10 Circus Street - Electric",21,"Circus Street 10",59097.00,kWh,***,Electric
11076,"2014-07-01 00:00:00",32,"10 Circus Street - Electric",21,"Circus Street 10",59014.00,kWh,***,Electric
11075,"2014-06-01 00:00:00",32,"10 Circus Street - Electric",21,"Circus Street 10",58907.00,kWh,***,Electric
11074,"2014-05-01 00:00:00",32,"10 Circus Street - Electric",21,"Circus Street 10",58830.00,kWh,***,Electric
11073,"2014-04-01 00:00:00",32,"10 Circus Street - Electric",21,"Circus Street 10",58717.00,kWh,***,Electric
12291,"2014-03-01 00:00:00",32,"10 Circus Street - Electric",21,"Circus Street 10",58647.00,kWh,***,Electric
12290,"2014-02-01 00:00:00",32,"10 Circus Street - Electric",21,"Circus Street 10",58595.00,kWh,***,Electric
12289,"2014-01-01 00:00:00",32,"10 Circus Street - Electric",21,"Circus Street 10",58507.00,kWh,***,Electric
12288,"2013-12-01 00:00:00",32,"10 Circus Street - Electric",21,"Circus Street 10",58387.00,kWh,***,Electric
12287,"2013-11-01 00:00:00",32,"10 Circus Street - Electric",21,"Circus Street 10",58308.00,kWh,***,Electric
12286,"2013-10-01 00:00:00",32,"10 Circus Street - Electric",21,"Circus Street 10",58191.00,kWh,***,Electric
12285,"2013-09-01 00:00:00",32,"10 Circus Street - Electric",21,"Circus Street 10",58077.00,kWh,***,Electric
12284,"2013-08-01 00:00:00",32,"10 Circus Street - Electric",21,"Circus Street 10",57998.00,kWh,***,Electric
12283,"2013-07-01 00:00:00",32,"10 Circus Street - Electric",21,"Circus Street 10",57942.00,kWh,***,Electric
12282,"2013-06-01 00:00:00",32,"10 Circus Street - Electric",21,"Circus Street 10",57841.00,kWh,***,Electric
12281,"2013-05-01 00:00:00",32,"10 Circus Street - Electric",21,"Circus Street 10",57714.00,kWh,***,Electric
12280,"2013-04-01 00:00:00",32,"10 Circus Street - Electric",21,"Circus Street 10",57581.00,kWh,***,Electric
13268,"2013-03-01 00:00:00",32,"10 Circus Street - Electric",21,"Circus Street 10",57418.00,kWh,***,Electric
13267,"2013-02-01 00:00:00",32,"10 Circus Street - Electric",21,"Circus Street 10",57288.00,kWh,***,Electric
13266,"2013-01-01 00:00:00",32,"10 Circus Street - Electric",21,"Circus Street 10",57165.00,kWh,***,Electric
13265,"2012-12-01 00:00:00",32,"10 Circus Street - Electric",21,"Circus Street 10",56991.00,kWh,***,Electric
13264,"2012-11-01 00:00:00",32,"10 Circus Street - Electric",21,"Circus Street 10",56924.00,kWh,***,Electric
13263,"2012-10-01 00:00:00",32,"10 Circus Street - Electric",21,"Circus Street 10",56807.00,kWh,***,Electric
13262,"2012-09-01 00:00:00",32,"10 Circus Street - Electric",21,"Circus Street 10",56754.00,kWh,***,Electric
13261,"2012-08-01 00:00:00",32,"10 Circus Street - Electric",21,"Circus Street 10",56745.00,kWh,***,Electric
13260,"2012-07-01 00:00:00",32,"10 Circus Street - Electric",21,"Circus Street 10",56745.00,kWh,***,Electric
13259,"2012-06-01 00:00:00",32,"10 Circus Street - Electric",21,"Circus Street 10",56724.00,kWh,***,Electric
13258,"2012-05-01 00:00:00",32,"10 Circus Street - Electric",21,"Circus Street 10",56578.00,kWh,***,Electric
